Regional Weather Roundup
Issued by NWS

Home | Current Version | Previous Version | Text Only | Print | Product List | Glossary Off
Versions: 1 2 3 4 5 6 7 8 9 10 11 12 13 14 15 16 17 18 19 20 21 22 23 24 25 26 27 28 29 30 31 32 33 34 35 36 37 38 39 40 41 42 43 44 45 46 47 48 49 50

000
ASUS43 KDMX 011307
RWRIA

WEATHER ROUNDUP FOR IOWA
NATIONAL WEATHER SERVICE DES MOINES IA
800 AM CDT WED JUL 01 2015

NOTE: "FAIR" INDICATES FEW OR NO CLOUDS BELOW 12,000 FEET WITH NO
SIGNIFICANT WEATHER AND/OR OBSTRUCTIONS TO VISIBILITY.

* - THESE STATIONS ARE NOT NWS STATIONS...THUS NOT UNDER NWS
QUALITY CONTROL.  THEY ALSO DO NOT REPORT WEATHER SUCH
AS PRECIPITATION OR FOG.

IAZ001>003-012>014-020>022-031>034-043>046-011400-
   NORTHWEST IOWA

CITY           SKY/WX    TMP DP  RH WIND       PRES   REMARKS
CARROLL *      CLOUDY    64  64 100 E14       29.90R
CHEROKEE *     PTSUNNY   64  63  94 NW3       29.96R
DENISON *      LGT RAIN  66  66 100 E6        29.89R
LE MARS *      LGT RAIN  66  64  94 SE13G18   29.87F
ORANGE CITY *  LGT RAIN  63  63 100 E8        29.90F
SHELDON *      PTSUNNY   64  64 100 SE12      29.91F
SIOUX CITY     LGT RAIN  67  64  90 SE5       29.91R FOG
SPENCER        PTSUNNY   64  58  80 E9        29.93F
STORM LAKE *   SUNNY     63  61  94 SE12G18   29.91F FOG
$$

IAZ055>058-069>071-079>083-090>094-011400-
   SOUTHWEST IOWA

CITY           SKY/WX    TMP DP  RH WIND       PRES   REMARKS
ATLANTIC *     LGT RAIN  66  66 100 SE9       29.87F
AUDUBON *      RAIN      66  64  94 E12       29.87F
CLARINDA *     PTSUNNY   70  68  94 E5        29.86R
COUNCIL BLFS * MOSUNNY   68  66  94 E14       29.86S
CRESTON *      MOSUNNY   68  66  94 E8        29.88S FOG
HARLAN  *      PTSUNNY   66  66 100 E5        29.90F FOG
LAMONI         MOSUNNY   69  67  93 E5        29.87F FOG
RED OAK *      PTSUNNY   70  68  94 NE10      29.88R
SHENANDOAH *   SUNNY     72  68  88 E6        29.85R
$$

IAZ047>049-059>061-072>074-084-011400-
   CENTRAL IOWA

CITY           SKY/WX    TMP DP  RH WIND       PRES   REMARKS
AMES           MOSUNNY   66  60  81 E7        29.94R
ANKENY *       MOSUNNY   66  63  88 VRB6      29.93R
CHARITON *     CLOUDY    70  68  94 E6        29.90S FOG
DES MOINES     PTSUNNY   69  61  75 NE7       29.92R
GRINNELL*      MOSUNNY   64  59  82 NE12      29.94R
KNOXVILLE *    PTSUNNY   66  61  82 E7        29.90S
MARSHALLTOWN   MOSUNNY   63  57  81 E9        29.94R
PELLA *        SUNNY     66  63  88 E6        29.93R
PERRY *        LGT RAIN  66  63  88 E9        29.91F
$$

IAZ004>006-015-016-023>025-035-036-011400-
   NORTH CENTRAL IOWA

CITY           SKY/WX    TMP DP  RH WIND       PRES   REMARKS
ALGONA *       SUNNY     61  57  88 E9        29.95F
CLARION *      MOSUNNY   63  55  77 SE10      29.95S
ESTHERVILLE    CLOUDY    60  56  86 SE9       29.95S
FORT DODGE *   MOSUNNY   63  57  82 E10       29.95S
MASON CITY     SUNNY     60  56  86 E7        29.98S
FOREST CITY *  SUNNY     59  55  88 E6        29.97R
IOWA FALLS *     N/A     63  55  77 E6        29.97R
$$

IAZ007>011-017>019-026>030-037>042-050>054-066-011400-
   NORTHEAST IOWA

CITY           SKY/WX    TMP DP  RH WIND       PRES   REMARKS
CEDAR RAPIDS   SUNNY     62  58  86 NE6       29.94R
CHARLES CITY * SUNNY     59  57  94 E9        29.98S
CLINTON *      MOSUNNY   63  57  82 E9        29.96S
DECORAH *        N/A    N/A N/A N/A MISG        N/A
DUBUQUE        CLOUDY    59  56  89 NE8       29.96R FOG
MONTICELLO *   SUNNY     59 N/A N/A NE5       29.95S
OELWEIN *      SUNNY     59  57  94 NE7       29.97S
WATERLOO       SUNNY     59  56  89 E6        29.95S
$$

IAZ064-065-067-068-078-011400-
   EAST CENTRAL IOWA

CITY           SKY/WX    TMP DP  RH WIND       PRES   REMARKS
DAVENPORT      CLOUDY    62  60  93 NE10      29.94R FOG
IOWA CITY      SUNNY     64  58  80 NE6       29.94S
MT. PLEASANT * SUNNY     70  63  78 NE5       29.91R
MUSCATINE *    MOSUNNY   64  61  88 NE8       29.92F
QUAD CITIES    FOG       63  61  93 E9        29.93R VSB 1
$$

IAZ062-063-075>077-085>089-095>099-011400-
   SOUTHEAST IOWA

CITY           SKY/WX    TMP DP  RH WIND       PRES   REMARKS
BURLINGTON     SUNNY     68  64  87 NE6       29.90S
FAIRFIELD *    SUNNY     66  61  82 E7        29.91R
FORT MADISON * SUNNY     68  66  94 CALM      29.91R
KEOKUK *       CLOUDY    70  68  94 CALM      29.90R FOG
OSKALOOSA *      N/A     66  61  82 E6        29.91S
CENTERVILLE *  SUNNY     68  66  94 CALM      29.91F
OTTUMWA        SUNNY     66  63  90 E8        29.89R
WASHINGTON *   PTSUNNY   64  61  88 NE9       29.93S
$$

ABBREVIATIONS USED IN REMARKS
   TC - TEMPERATURES IN CELSIUS
  WCI - WIND CHILL INDEX
   HX - HEAT INDEX
  VSB - VISIBILITY
$$




USA.gov is the U.S. government's official web portal to all federal, state and local government web resources and services.